Regional Weather Roundup
Issued by NWS

Home | Current Version | Previous Version | Text Only | Print | Product List | Glossary Off
Versions: 1 2 3 4 5 6 7 8 9 10 11 12 13 14 15 16 17 18 19 20 21 22 23 24 25 26 27

000
ASUS45 KCYS 281810
RWRWY

WYOMING REGIONAL WEATHER ROUNDUP
NATIONAL WEATHER SERVICE CHEYENNE WY
1200 PM MDT THU JUL 28 2016

NOTE:  "FAIR" INDICATES FEW OR NO CLOUDS BELOW 12,000 FEET
WITH NO SIGNIFICANT WEATHER AND/OR OBSTRUCTIONS TO VISIBILITY.

WYZ001-281900-
YELLOWSTONE NATIONAL PARK

CITY           SKY/WX    TMP DP  RH WIND       PRES   REMARKS
LK YELLOWSTONE   N/A     67  45  45 MISG      30.40S
6HR MIN TEMP:  41; 6HR MAX TEMP:  68;

W YELLOWSTONE  NOT AVBL

$$
WYZ002>013-054>058-071-098>099-281900-
NORTHERN WYOMING

CITY           SKY/WX    TMP DP  RH WIND       PRES   REMARKS
JACKSON        SUNNY     75  41  29 SW6       30.28F
CODY           FAIR      72  52  49 N7        30.25F
GREYBULL       FAIR      76  54  46 E6        30.17F
6HR MIN TEMP:  61; 6HR MAX TEMP:  76;

WORLAND        FAIR      75  52  44 VRB3      30.19F
6HR MIN TEMP:  59; 6HR MAX TEMP:  75; 6HR PCP:  0.01;

SHERIDAN       PTSUNNY   74  54  49 N9        30.21F
6HR MIN TEMP:  60; 6HR MAX TEMP:  75;

BUFFALO        FAIR      71  53  52 N9        30.26F
6HR MIN TEMP:  59; 6HR MAX TEMP:  71; 6HR PCP: TRACE;

GILLETTE       FAIR      68  58  70 N10       30.22S
6HR MIN TEMP:  59; 6HR MAX TEMP:  68; 6HR PCP:  0.21;

HULETT         TSTM      59  57  94 SW8       30.23F
NEWCASTLE      FAIR      64  54  68 NW16G23   30.24R

$$
WYZ014>020-022>026-101>103-281900-
CENTRAL WYOMING

CITY           SKY/WX    TMP DP  RH WIND       PRES   REMARKS
BIG PINEY      FAIR      78  36  21 W6        30.31F
6HR MIN TEMP:  46; 6HR MAX TEMP:  78;

PINEDALE       FAIR      77  32  19 E7        30.32F
DUBOIS         FAIR      72  43  35 E6        30.31F
LANDER         FAIR      77  48  35 E7        30.23F
6HR MIN TEMP:  61; 6HR MAX TEMP:  77;

RIVERTON       FAIR      74  47  38 VRB6      30.25F
6HR MIN TEMP:  60; 6HR MAX TEMP:  74;

CASPER         FAIR      73  48  41 SE9G20    30.25F
6HR MIN TEMP:  60; 6HR MAX TEMP:  74;

DOUGLAS          N/A    N/A N/A N/A MISG      30.24F

$$
WYZ021-027>030-104>119-281900-
SOUTHERN WYOMING

CITY           SKY/WX    TMP DP  RH WIND       PRES   REMARKS
EVANSTON       FAIR      84  27  12 NE9       30.33F
6HR MIN TEMP:  59; 6HR MAX TEMP:  84;

KEMMERER         N/A    N/A N/A N/A NW10G22   30.33F
FORT BRIDGER   CLEAR     84  27  12 W6        30.34F
ROCK SPRINGS   FAIR      78  43  28 E8        30.30F
6HR MIN TEMP:  57; 6HR MAX TEMP:  79;

DIXON          FAIR      81  31  16 W5        30.29F
RAWLINS        FAIR      75  50  41 VRB5      30.31F
6HR MIN TEMP:  47; 6HR MAX TEMP:  75;

SARATOGA       FAIR      73  50  43 N7        30.33S
LARAMIE        FAIR      71  50  47 N6G18     30.34S
6HR MIN TEMP:  48; 6HR MAX TEMP:  71;

CHEYENNE       PTSUNNY   67  55  65 NE17G30   30.28F
6HR MIN TEMP:  57; 6HR MAX TEMP:  70; 6HR PCP: TRACE;

TORRINGTON     FAIR      70  57  63 S12       30.19F
6HR MIN TEMP:  60; 6HR MAX TEMP:  70; 6HR PCP:  0.18;

PINE BLUFFS    CLOUDY    63  55  77 NE17G23   30.28S

$$




USA.gov is the U.S. government's official web portal to all federal, state and local government web resources and services.